Location: Borovka
(49.7741°N, 14.5280°E)
Time: 06:01:04
(UTC+00:00)

Okean 2 Rocket - Pass Details

Date: 17 November 2025
Orbit: 611 x 634 km, 82.5° (Epoch: 16 December)

Event Time Altitude Azimuth Distance (km) Brightness Sun altitude
Rises 16:53:03 0° 165° (SSE) 2,887 6.5 -15.5°
Reaches altitude 10° 16:55:24 10° 157° (SSE) 1,982 5.5 -15.8°
Maximum altitude 16:59:24 36° 91° (E) 988 3.6 -16.5°
Enters shadow 17:00:49 28° 53° (NE) 1,159 3.9 -16.7°
